SCP
0 0 0 0 0 0 0 0 0 0 0 0 0 0 0 0 0 0 0 0 0 0 0 0 0 0 0 0 0 0 0 0 1 1 1 1 1 1
0 0 0 0 0 0 0 0 0 0 0 0 0 0 1 1 0 0 0 0 0 0 0 0 0 0 0 0 0 0 0 0 0 0 0 0 0 0
0 0 0 0 0 0 0 0 0 0 0 0 0 1 1 1 0 0 0 0 0 0 0 0 0 0 0 0 0 0 0 0 0 0 0 0 0 0
0 0 0 0 0 0 0 0 0 0 0 0 0 1 1 1 0 0 0 0 0 0 0 0 0 0 0 0 0 0 0 0 0 0 0 0 0 0
0 0 0 0 0 0 0 0 0 0 0 0 1 1 1 1 0 0 0 0 0 0 0 0 0 0 0 0 0 0 0 0 0 0 0 0 0 0
0 0 0 0 0 0 0 0 0 0 0 0 1 1 1 1 1 0 0 0 0 0 0 0 0 0 0 0 0 0 0 0 0 0 0 0 0 0
0 0 0 0 0 0 0 0 0 0 0 0 1 1 1 1 1 0 0 0 0 0 0 0 0 0 0 0 0 0 0 0 0 0 0 0 0 0
0 0 0 0 0 0 0 0 0 0 0 0 0 1 1 1 1 0 0 0 0 0 0 0 0 0 0 0 0 0 0 0 0 0 0 0 0 0
0 0 0 0 0 0 0 0 0 0 0 0 0 0 1 1 1 0 0 0 0 0 0 0 0 0 0 0 0 0 0 0 0 0 0 0 0 0
0 0 0 0 0 0 0 0 0 0 0 0 0 0 0 0 0 0 0 0 0 0 0 0 0 0 0 0 0 0 0 0 0 0 0 0 0 0
0 0 0 0 0 0 0 0 0 0 0 0 0 0 0 0 0 0 0 0 0 0 0 0 0 0 0 0 0 0 0 0 0 0 0 0 0 0
0 0 0 0 0 0 0 0 0 0 0 0 0 0 0 0 0 0 0 0 0 0 0 0 0 0 0 0 0 0 0 0 0 0 0 0 0 0
0 0 0 0 0 0 0 0 0 0 0 0 0 0 0 0 0 0 0 0 0 0 0 0 0 0 0 0 0 0 0 0 0 0 0 0 0 0
0 0 0 0 0 0 0 0 0 0 0 0 0 0 0 0 0 0 0 0 0 0 0 0 0 0 0 0 0 0 0 0 0 0 0 0 0 0
0 0 0 0 0 0 0 0 0 0 0 0 0 0 0 0 1 1 0 0 0 0 0 0 0 0 0 0 0 0 0 0 0 0 0 0 0 0
0 0 0 0 0 0 0 0 0 0 0 0 0 0 0 0 1 1 0 0 0 0 0 0 0 0 0 0 0 0 0 0 0 0 0 0 0 0
0 0 0 0 0 0 0 0 0 0 0 0 0 0 0 0 0 1 0 0 0 0 0 0 0 0 0 0 0 0 0 0 0 0 0 0 0 0
0 0 0 0 0 0 0 0 0 0 0 0 0 0 0 0 0 0 0 0 0 0 0 0 0 0 0 0 0 0 0 0 0 0 0 0 0 0
0 0 0 0 0 0 0 0 0 0 0 0 0 0 0 0 0 0 0 0 0 0 0 0 0 0 0 0 0 0 0 0 0 0 0 0 0 0
0 0 0 0 0 0 0 0 0 0 0 0 0 0 0 0 0 0 0 0 0 0 0 0 0 0 0 0 0 0 0 0 0 0 0 0 0 0
0 0 0 0 0 0 0 0 0 0 0 0 0 0 0 0 0 0 0 0 0 0 0 0 0 0 0 0 0 0 0 0 0 0 0 0 0 0
0 0 0 0 0 0 0 0 0 0 0 0 0 0 0 0 0 0 0 0 0 0 0 0 0 0 0 0 0 0 0 0 0 0 0 0 0 0
0 0 0 0 0 0 0 0 0 0 0 0 0 0 0 0 0 0 0 0 0 0 0 0 0 0 0 0 0 0 0 0 0 0 0 0 0 0
Wind_Speed
5 5 3 3 3 3 2 2 2 2 3 3 2 2 2 3 7 6 6 10 12 12 13 13 14 14 15 15 15 15 15 15 15 15 15 15 15 16
5 5 5 3 3 3 2 3 3 3 3 3 2 1 2 4 5 5 5 9 9 11 11 11 12 13 13 14 14 14 14 14 14 14 14 14 13 13
6 6 7 5 4 3 3 3 3 2 4 3 2 1 2 5 5 5 5 5 4 7 8 9 10 11 11 12 13 13 13 13 13 13 12 12 12 12
7 7 7 6 6 4 3 3 3 3 3 4 2 1 1 6 7 7 5 5 4 5 6 7 8 9 9 10 10 11 11 11 11 11 11 11 10 10
7 7 8 7 7 5 5 4 3 3 3 3 3 1 1 4 6 6 6 5 5 6 7 7 7 8 8 8 9 9 9 10 9 9 9 9 8 8
8 7 8 8 8 7 6 6 4 4 3 3 3 2 2 4 5 6 5 3 4 4 6 7 9 9 9 8 9 9 10 10 10 10 9 9 8 8
8 7 8 11 13 10 7 6 6 4 4 4 3 3 4 6 6 5 6 5 3 3 4 4 5 5 5 7 9 10 11 11 11 11 11 11 10 9
8 7 8 10 13 15 15 13 11 7 6 5 4 5 6 6 6 7 7 6 4 3 4 3 3 5 4 4 7 10 11 11 12 12 12 12 12 11
8 7 9 9 9 7 10 14 13 14 12 7 6 6 6 7 9 9 9 7 4 7 5 4 3 4 3 5 9 10 11 11 12 12 12 12 12 12
9 9 9 8 8 7 6 7 7 8 9 7 6 6 5 5 9 9 10 7 6 5 4 4 3 3 3 4 7 9 10 11 12 12 13 13 13 12
9 9 9 9 11 12 8 7 6 6 8 9 8 8 8 8 8 7 9 10 7 4 3 5 4 3 3 3 5 8 9 10 11 12 13 13 13 12
6 7 12 11 11 12 9 8 8 7 5 6 6 7 7 9 12 10 10 11 8 5 4 5 5 5 4 2 2 3 5 7 10 11 12 12 11 7
5 5 6 11 12 13 11 8 9 7 6 6 5 5 5 6 8 8 8 9 9 5 8 7 6 4 5 4 2 2 2 3 4 5 8 10 9 7
5 4 4 9 11 12 10 9 10 8 4 5 4 5 5 6 7 8 8 6 5 6 12 10 7 7 7 5 4 3 2 2 3 3 3 6 7 7
4 5 5 6 6 7 10 11 8 5 5 5 5 6 5 5 5 7 8 6 5 7 10 6 9 9 6 6 6 5 4 3 3 4 3 3 3 4
2 2 2 3 2 3 4 5 4 5 5 5 5 4 3 4 5 6 7 7 6 5 5 5 10 12 6 5 7 7 5 7 7 4 4 3 2 3
1 1 1 1 2 2 2 3 3 3 4 3 3 3 4 5 4 5 6 7 6 7 7 5 5 4 5 8 7 7 6 5 6 6 5 3 3 4
1 1 2 3 3 4 4 3 4 4 5 4 4 4 4 5 5 5 6 7 8 7 7 7 8 6 4 2 4 9 7 5 6 7 5 4 3 3
2 3 3 3 3 3 4 4 5 5 5 5 4 4 4 4 5 6 6 7 8 8 8 8 9 8 7 6 4 7 9 8 8 7 5 4 5 5
3 4 4 4 4 4 4 4 4 4 4 5 5 5 5 5 5 7 7 7 8 8 8 8 9 8 7 8 6 6 10 10 9 9 6 3 2 3
4 5 5 4 4 4 4 4 5 5 5 5 5 6 6 5 5 6 7 9 8 8 10 10 8 9 6 7 6 4 6 10 10 8 9 5 3 3
5 5 5 5 5 5 4 4 4 4 5 5 5 5 5 6 6 7 8 8 8 7 7 6 7 7 5 6 6 7 7 7 7 9 11 10 8 8
5 5 4 4 4 4 4 5 6 5 5 6 6 6 6 6 5 6 8 8 8 8 9 8 7 6 5 5 6 6 8 8 6 5 3 2 7 11
Wind_Direction
249 248 246 249 247 244 237 229 237 260 272 270 264 216 181 168 173 170 168 181 183 187 192 196 197 198 197 199 203 206 210 211 212 213 214 215 216 220
248 245 245 241 244 244 242 237 225 225 254 268 256 235 164 154 145 140 142 151 165 176 186 192 196 198 198 200 203 205 207 208 210 212 213 213 215 217
258 247 243 235 231 233 230 233 235 219 247 271 276 274 137 146 129 117 114 113 127 155 171 184 190 194 197 199 202 203 205 205 206 208 208 207 207 210
258 251 248 242 230 226 220 224 228 226 231 257 281 242 167 157 140 128 116 109 103 121 145 160 172 179 184 188 190 192 193 193 195 195 195 195 198 201
252 246 244 235 232 225 217 220 223 231 226 237 258 253 165 147 133 117 109 103 98 102 108 120 137 149 158 167 173 175 176 176 177 177 176 174 174 176
250 244 240 229 225 222 218 216 213 215 218 229 238 237 186 154 141 138 130 114 107 100 92 96 105 109 122 135 145 150 152 151 149 147 145 142 142 144
257 250 245 241 233 220 211 205 200 205 208 213 220 221 195 168 161 148 143 130 96 106 107 92 93 89 88 107 121 131 133 134 133 132 130 127 126 125
254 253 256 258 249 232 222 209 195 194 202 209 211 217 207 179 159 154 149 151 146 149 120 95 85 83 66 71 111 122 126 127 128 127 125 123 121 119
243 244 256 255 242 228 228 224 214 207 198 194 208 214 208 186 169 166 167 163 147 151 127 101 76 74 58 76 103 114 120 123 124 123 121 119 117 115
236 234 235 242 244 225 217 215 211 210 208 203 206 212 208 195 183 174 159 131 102 125 118 112 98 78 62 64 90 107 115 119 121 121 119 116 114 111
238 236 230 229 234 225 211 207 209 220 219 212 212 216 205 194 173 156 155 152 147 150 120 117 122 103 73 56 77 101 112 119 122 122 121 118 114 106
240 238 237 231 228 219 205 197 202 210 198 197 210 221 207 192 180 179 172 167 154 150 151 125 133 131 112 75 65 84 99 111 120 124 127 124 119 108
234 234 235 232 228 219 204 197 205 195 188 187 192 202 197 193 190 188 183 175 165 156 158 139 138 130 124 129 121 115 113 119 115 126 133 132 130 127
230 232 235 236 227 215 203 202 205 191 172 176 190 199 199 199 194 188 183 182 164 151 158 150 140 149 135 133 146 140 135 138 134 141 144 142 133 125
236 237 232 228 210 199 199 194 188 179 169 179 196 202 198 193 182 179 171 149 118 136 154 153 142 145 139 142 147 149 151 170 167 155 158 156 155 144
256 259 225 190 170 169 175 182 178 181 178 184 193 188 173 178 183 177 172 157 141 135 141 146 151 150 141 140 148 155 157 164 170 171 159 165 170 167
232 194 155 148 162 175 171 172 175 176 186 175 176 175 177 182 182 173 163 155 154 155 151 141 136 124 128 142 146 157 152 151 162 159 154 168 193 185
229 206 203 195 191 188 183 183 187 191 191 179 174 176 181 185 180 171 166 164 159 159 158 151 143 127 102 68 143 157 159 154 154 158 148 157 191 198
230 235 228 214 208 200 192 190 195 197 187 180 182 181 180 182 178 173 173 169 163 164 163 158 161 157 157 165 184 173 165 158 156 164 169 161 180 192
229 233 234 226 217 214 205 200 201 190 183 185 186 181 178 179 181 176 173 171 163 160 162 168 175 176 173 160 155 173 174 162 162 169 171 157 138 149
238 238 236 227 220 217 213 204 196 191 186 182 185 183 177 173 179 176 170 166 162 164 174 179 177 154 116 114 122 140 168 178 167 165 161 149 141 141
245 243 241 231 223 216 211 202 193 190 187 186 183 182 178 175 176 173 169 170 174 171 171 159 146 148 149 158 159 153 155 165 177 174 167 164 160 176
244 242 241 238 229 215 203 198 195 195 190 185 184 181 176 173 173 170 169 169 170 167 159 155 155 158 161 155 149 145 151 156 153 149 166 194 191 191